Regional Weather Roundup
Issued by NWS

Home | Current Version | Previous Version | Graphics & Text | Print | Product List | Glossary On
Versions: 1 2 3 4 5 6 7 8 9 10 11 12 13 14 15 16 17 18 19 20 21 22 23 24 25 26 27 28 29 30 31 32 33 34 35 36 37 38 39 40 41 42 43 44 45 46 47 48 49 50
000
ASUS43 KLSX 020807
RWRMO

WEATHER SUMMARY FOR MISSOURI
NATIONAL WEATHER SERVICE SPRINGFIELD MO
200 AM CST MON MAR 02 2015

NOTE: "FAIR" INDICATES FEW OR NO CLOUDS BELOW 12,000 FEET WITH NO
       SIGNIFICANT WEATHER AND/OR OBSTRUCTIONS TO VISIBILITY.
       CURRENT SKY AND/OR WEATHER CONDITIONS ARE NOT AVAILABLE FOR
       CHILLICOTHE AND FARMINGTON.

MOZ001>031-035>038-043-044-053-054-020900-
...NORTHERN AND WESTERN MISSOURI...

CITY           SKY/WX    TMP DP  RH WIND       PRES   REMARKS
KANSAS CTY INT PTCLDY    23  18  81 SW5       30.50S WCI  17
KANSAS C DTWN  PTCLDY    24  20  84 CALM      30.51F
LEE`S SUMMIT   MOCLDY    23  19  85 CALM      30.50S
ST JOSEPH      PTCLDY    24  21  88 CALM      30.52S
CHILLICOTHE      N/A     22  18  85 CALM      30.53R
KIRKSVILLE     CLOUDY    19  17  92 W3        30.50R

$$
MOZ066>068-077>081-088>096-101>105-020900-
...SOUTHWEST MISSOURI...

CITY           SKY/WX    TMP DP  RH WIND       PRES   REMARKS
SPRINGFIELD    PTCLDY    21  17  84 NE7       30.47R WCI  12
JOPLIN         PTCLDY    21  18  88 E3        30.49S FOG

$$
MOZ032>034-039>042-045>050-055>058-069>072-020900-
...CENTRAL MISSOURI...

CITY           SKY/WX    TMP DP  RH WIND       PRES   REMARKS
COLUMBIA       PTCLDY    18  16  92 NW5       30.51R FOG     WCI  11
JEFFERSON CITY PTCLDY    14  11  87 CALM      30.54R FOG
ROLLA          PTCLDY    16  14  92 N6        30.47S WCI   7
SEDALIA        PTCLDY    18  14  84 SW5       30.52R FOG     WCI  11
WHITEMAN AFB   CLEAR     11   8  86 SW2       30.51R
WARRENSBURG    MOCLDY    14  12  92 CALM      30.53R FOG
OSAGE BEACH    PTCLDY    16  12  86 CALM      30.51R

$$
MOZ051-052-059>065-020900-
...EAST CENTRAL MISSOURI...

CITY           SKY/WX    TMP DP  RH WIND       PRES   REMARKS
ST LOUIS INTL  PTCLDY    17  12  80 CALM      30.52R
SPIRIT OF STL  FAIR      13  10  88 CALM      30.52S FOG
ST CHARLES     PTCLDY    11   8  88 CALM      30.52F FOG

$$
MOZ072>076-082>087-097>100-106>115-020900-
...SOUTH CENTRAL AND SOUTHEAST MISSOURI...

CITY           SKY/WX    TMP DP  RH WIND       PRES   REMARKS
CAPE GIRARDEAU CLEAR     30  25  81 N10       30.49R WCI  21
FARMINGTON     PTCLDY    25  19  80 N7        30.51R WCI  17
POPLAR BLUFF   CLEAR     31  22  69 N13       30.47S WCI  21
WEST PLAINS    PTCLDY    26  21  81 NE7       30.45S WCI  18

$$



USA.gov is the U.S. government's official web portal to all federal, state and local government web resources and services.